Tracking 18980 objects as of 22-Feb-2018
HD Live streaming from Space Station
objects crossing your sky now

FENGYUN 1C DEB

Track FENGYUN 1C DEB now!
10-day predictions


NORAD ID: 31647
Int'l Code: 1999-025CBD
Perigee: 748.5 km
Apogee: 1,002.3 km
Inclination: 98.1 °
Period: 102.3 minutes
Semi major axis: 7246 km
RCS: 0.0149 m2 (small)
Launch date: May 10, 1999
Source: People's Republic of China (PRC)
Launch site: Taiyaun Space Center, China (TSC)

Note: This is SATELLITE DEBRIS
aabbcc
Your satellite tracking list
Your tracking list is empty




NASA's NSSDC Master Catalog

Two Line Element Set (TLE):
1 31647U 99025CBD 18049.52577090 +.00001311 +00000-0 +69627-3 0  9992
2 31647 098.0662 324.8947 0175108 144.4353 216.8638 14.07407551551039
Source of the keplerian elements: AFSPC